GW0528 Weather Reports


time (UTC)temp
F
wind
direction
speed
knots
gust
knots
rain 1hr
in
rain 24hr
in
rain mn
in
humidity
%
barometer
mb
20260510203046 93 131 11.3 14.8 0.00 0.00 0.00 44 1012.5
20260510201546 94 142 7.8 12.2 0.00 0.00 0.00 42 1012.5
20260510200112 93 179 5.2 12.2 0.00 0.00 0.00 47 1012.7
20260510194552 92 100 8.7 15.6 0.00 0.00 0.00 49 1013.0
20260510193056 91 119 7.8 11.3 0.00 0.00 0.00 51 1013.1
20260510191558 91 80 3.5 13.0 0.00 0.00 0.00 55 1013.4
20260510190049 91 145 7.0 12.2 0.00 0.00 0.00 53 1013.5
20260510184544 90 97 7.0 13.9 0.00 0.00 0.00 56 1013.5
20260510183056 90 105 9.6 14.8 0.00 0.00 0.00 56 1013.6
20260510181545 89 132 7.0 14.8 0.00 0.00 0.00 59 1013.6
20260510180052 88 118 7.8 13.0 0.00 0.00 0.00 60 1013.9
20260510174549 88 144 5.2 12.2 0.00 0.00 0.00 62 1014.1
20260510173058 88 132 4.3 12.2 0.00 0.00 0.00 64 1014.0
20260510171558 86 109 9.6 13.9 0.00 0.00 0.00 64 1014.1
20260510170050 86 127 8.7 14.8 0.00 0.00 0.00 66 1013.9
20260510164550 85 123 7.8 13.0 0.00 0.00 0.00 69 1014.1
20260510163051 84 129 7.8 14.8 0.00 0.00 0.00 71 1014.0
20260510161553 83 134 4.3 11.3 0.00 0.00 0.00 72 1013.9
20260510160055 83 122 5.2 14.8 0.00 0.00 0.00 73 1013.9
20260510154555 82 157 5.2 12.2 0.00 0.00 0.00 74 1013.6
20260510153054 81 137 4.3 10.4 0.00 0.00 0.00 76 1013.7
20260510151553 80 166 3.5 9.6 0.00 0.00 0.00 77 1013.4
20260510150057 79 132 4.3 7.8 0.00 0.00 0.00 79 1013.7
20260510144616 77 114 2.6 7.0 0.00 0.00 0.00 81 1013.5
20260510143054 77 144 4.3 8.7 0.00 0.00 0.00 82 1013.5
20260510141604 76 110 2.6 7.8 0.00 0.00 0.00 84 1013.7
20260510140055 74 88 3.5 6.1 0.00 0.00 0.00 86 1013.7
20260510134605 73 79 3.5 5.2 0.00 0.00 0.00 87 1013.7
20260510133102 72 88 5.2 7.0 0.00 0.00 0.00 89 1013.9
20260510131602 70 77 7.0 9.6 0.00 0.00 0.00 90 1013.5
20260510130028 69 86 6.1 9.6 0.00 0.00 0.00 91 1013.4
20260510124529 68 75 6.1 8.7 0.00 0.00 0.00 92 1013.2
20260510123032 67 72 6.1 8.7 0.00 0.00 0.00 92 1013.2
20260510121528 67 75 5.2 7.8 0.00 0.00 0.00 92 1013.2
20260510120028 67 59 3.5 5.2 0.00 0.00 0.00 91 1013.0
20260510114526 67 63 4.3 6.1 0.00 0.00 0.00 91 1012.8
20260510113035 68 46 3.5 7.8 0.00 0.00 0.00 90 1012.8
20260510111528 68 50 2.6 5.2 0.00 0.00 0.00 89 1012.6
20260510110027 69 66 3.5 4.3 0.00 0.00 0.00 87 1012.5
20260510104530 71 96 2.6 5.2 0.00 0.00 0.00 87 1012.4
20260510103027 71 96 2.6 6.1 0.00 0.00 0.00 86 1012.2
20260510101529 72 144 3.5 7.8 0.00 0.00 0.00 85 1012.1
20260510100029 72 129 4.3 8.7 0.00 0.00 0.00 85 1012.0
20260510094533 72 127 5.2 7.8 0.00 0.00 0.00 84 1012.3
20260510093032 73 124 4.3 8.7 0.00 0.00 0.00 82 1012.3
20260510091529 73 123 3.5 7.0 0.00 0.00 0.00 81 1012.1
20260510090030 73 71 2.6 4.3 0.00 0.00 0.00 79 1012.3
20260510084527 73 85 1.7 3.5 0.00 0.00 0.00 79 1012.1
20260510083032 73 131 2.6 5.2 0.00 0.00 0.00 77 1011.9
20260510081537 73 97 3.5 5.2 0.00 0.00 0.00 77 1011.8
20260510080029 74 79 3.5 6.1 0.00 0.00 0.00 75 1012.0
20260510074533 74 80 3.5 6.1 0.00 0.00 0.00 73 1012.0
20260510073042 76 136 3.5 6.1 0.00 0.00 0.00 71 1012.2
20260510071534 75 170 1.7 4.3 0.00 0.00 0.00 72 1012.2
20260510070037 75 138 0.9 2.6 0.00 0.00 0.00 73 1012.2
20260510064541 75 119 1.7 5.2 0.00 0.00 0.00 73 1012.1
20260510063040 75 124 2.6 6.1 0.00 0.00 0.00 72 1012.2
20260510061535 76 130 4.3 9.6 0.00 0.00 0.00 70 1012.1
20260510060038 76 120 7.0 9.6 0.00 0.00 0.00 69 1012.2
20260510054533 76 96 7.0 10.4 0.00 0.00 0.00 70 1012.0
20260510053036 76 107 7.0 8.7 0.00 0.00 0.00 70 1011.7
20260510051538 76 104 6.1 8.7 0.00 0.00 0.00 71 1011.8
20260510050042 76 105 6.1 7.8 0.00 0.00 0.00 69 1011.7
20260510044545 77 114 7.0 8.7 0.00 0.00 0.00 69 1011.8
20260510043035 76 96 5.2 7.0 0.00 0.00 0.00 70 1011.8
20260510041535 77 88 4.3 6.1 0.00 0.00 0.00 68 1011.7
20260510040033 78 102 2.6 5.2 0.00 0.00 0.00 67 1011.4
20260510034538 79 118 5.2 8.7 0.00 0.00 0.00 66 1011.4
20260510033039 80 113 7.0 10.4 0.00 0.00 0.00 65 1011.3
20260510031534 80 108 8.7 11.3 0.00 0.00 0.00 65 1011.2
20260510030035 80 109 7.0 10.4 0.00 0.00 0.00 66 1011.1
20260510024541 79 104 6.1 8.7 0.00 0.00 0.00 67 1011.0
20260510023035 81 84 6.1 7.8 0.00 0.00 0.00 64 1010.7
20260510021538 82 87 6.1 7.8 0.00 0.00 0.00 63 1010.6
20260510020034 83 103 6.1 8.7 0.00 0.00 0.00 61 1010.3
20260510014541 84 105 6.1 7.8 0.00 0.00 0.00 59 1010.0
20260510013037 85 114 6.1 9.6 0.00 0.00 0.00 56 1009.8
20260510011535 86 113 7.0 9.6 0.00 0.00 0.00 53 1009.7
20260510010033 88 107 7.0 10.4 0.00 0.00 0.00 51 1009.7
20260510004532 88 86 3.5 7.0 0.00 0.00 0.00 51 1009.3
20260510003036 89 90 3.5 5.2 0.00 0.00 0.00 50 1009.5
20260510001536 90 196 0.9 1.7 0.00 0.00 0.00 48 1009.5
20260510000039 90 196 0.9 1.7 0.00 0.00 0.00 45 1009.4
20260509234539 90 150 2.6 6.1 0.00 0.00 0.00 48 1009.4
20260509233037 91 42 0.9 4.3 0.00 0.00 0.00 46 1009.4
20260509231536 91 315 1.7 4.3 0.00 0.00 0.00 46 1009.4
20260509230036 91 303 1.7 3.5 0.00 0.00 0.00 45 1009.4
20260509224540 91 182 0.0 2.6 0.00 0.00 0.00 44 1009.4
20260509223037 90 191 0.0 5.2 0.00 0.00 0.00 46 1009.4
20260509221535 90 355 0.9 6.1 0.00 0.00 0.00 47 1009.5
20260509220033 90 265 1.7 7.0 0.00 0.00 0.00 49 1009.7
20260509214540 90 188 2.6 9.6 0.00 0.00 0.00 49 1009.8
20260509213038 90 108 0.0 3.5 0.00 0.00 0.00 51 1009.9
20260509211537 90 249 1.7 8.7 0.00 0.00 0.00 50 1010.2
20260509210049 90 259 3.5 10.4 0.00 0.00 0.00 47 1010.4
20260509204543 89 216 1.7 6.1 0.00 0.00 0.00 50 1010.8